Regional Weather Roundup
Issued by NWS

Home | Current Version | Previous Version | Graphics & Text | Print | Product List | Glossary On
Versions: 1 2 3 4 5 6 7 8 9 10 11 12 13 14 15 16 17 18 19 20 21 22 23 24 25 26 27 28 29 30 31 32 33 34 35 36 37 38 39 40 41 42 43 44 45 46 47 48 49 50
000
ASUS45 KCYS 012310
RWRWY

WYOMING REGIONAL WEATHER ROUNDUP
NATIONAL WEATHER SERVICE CHEYENNE WY
400 PM MST SUN FEB 01 2015

NOTE:  "FAIR" INDICATES FEW OR NO CLOUDS BELOW 12,000 FEET
WITH NO SIGNIFICANT WEATHER AND/OR OBSTRUCTIONS TO VISIBILITY.

WYZ001-020000-
YELLOWSTONE NATIONAL PARK

CITY           SKY/WX    TMP DP  RH WIND       PRES   REMARKS
LK YELLOWSTONE   N/A     21  15  78 MISG      30.04F
W YELLOWSTONE  NOT AVBL

$$
WYZ002>013-054>058-071-098>099-020000-
NORTHERN WYOMING

CITY           SKY/WX    TMP DP  RH WIND       PRES   REMARKS
JACKSON        CLOUDY    23  18  80 CALM      30.03F
CODY           CLOUDY    28  18  64 SE16      30.01F WCI  17
GREYBULL       FAIR      23  14  68 S9        30.12F WCI  13
WORLAND        FAIR      21  13  71 E3        30.11F
SHERIDAN       FAIR      28  11  48 SE8       30.06F WCI  20
BUFFALO          N/A     26  12  55 MISG      30.04F
GILLETTE       FAIR      23   9  55 SW10      30.10F WCI  12
HULETT           N/A    N/A N/A N/A MISG        N/A
NEWCASTLE      FAIR      19   3  49 W8        30.17S WCI   9

$$
WYZ014>020-022>026-101>103-020000-
CENTRAL WYOMING

CITY           SKY/WX    TMP DP  RH WIND       PRES   REMARKS
BIG PINEY      CLOUDY    33   5  30 CALM      30.09F
PINEDALE       FAIR      28  12  50 SE3       30.10F
DUBOIS         FAIR      32   5  32 NW20G26   29.98F WCI  20
LANDER         FAIR      31  17  56 N3        30.03F
RIVERTON       FAIR      28  15  58 NE9       30.05F WCI  19
CASPER         FAIR      28  12  51 SW10      30.08F WCI  19
DOUGLAS        FAIR      27   9  46 NW12      30.13F WCI  17

$$
WYZ021-027>030-104>119-020000-
SOUTHERN WYOMING

CITY           SKY/WX    TMP DP  RH WIND       PRES   REMARKS
EVANSTON       PTSUNNY   35  15  44 SW13      30.13F WCI  26
KEMMERER       FAIR      32  21  64 W14       30.11F WCI  22
FORT BRIDGER   CLOUDY    38  16  41 W13G28    30.15S WCI  30
ROCK SPRINGS   CLOUDY    34  13  41 W15       30.09S WCI  24
DIXON          CLOUDY    33  14  46 CALM      30.15F
RAWLINS        FAIR      31  11  43 W15       30.08F WCI  20
SARATOGA       FAIR      32  12  43 W14       30.10S WCI  22
LARAMIE        FAIR      25   7  46 NW17G25   30.04F WCI  12
CHEYENNE       FAIR      25   9  50 N12       30.08S WCI  14
TORRINGTON     FAIR      26   5  40 N9        30.17F WCI  17
PINE BLUFFS    FAIR      23  10  58 N16       30.14F WCI  10

$$


USA.gov is the U.S. government's official web portal to all federal, state and local government web resources and services.